TimeCET,TemperatureF,Dew PointF,Humidity,Sea Level PressureIn,VisibilityMPH,Wind Direction,Wind SpeedMPH,Gust SpeedMPH,PrecipitationIn,Events,Conditions,WindDirDegrees,DateUTC
1:00 AM,17,11,67,,6,ESE,3.5,,,,Partly Cloudy,120,2013-01-23 00:00:00
3:55 AM,15.8,10.4,79,29.44,-9999.0,ESE,1.2,-,N/A,,Clear,120,2013-01-23 02:55:00
4:00 AM,17,10,64,,6,ESE,1.2,,,,,120,2013-01-23 03:00:00
4:55 AM,15.8,10.4,79,29.44,-9999.0,North,2.3,-,N/A,,Clear,350,2013-01-23 03:55:00
5:55 AM,19.4,10.4,68,29.44,-9999.0,North,4.6,-,N/A,,Clear,350,2013-01-23 04:55:00
7:00 AM,17,7,51,,12,West,2.3,,,,,260,2013-01-23 06:00:00
7:55 AM,15.8,8.6,73,29.44,-9999.0,ESE,11.5,-,N/A,,Clear,120,2013-01-23 06:55:00
8:55 AM,15.8,12.2,86,29.47,6.2,SE,13.8,-,N/A,,Scattered Clouds,130,2013-01-23 07:55:00
9:55 AM,19.4,15.8,86,29.47,6.2,ESE,3.5,-,N/A,,Partly Cloudy,110,2013-01-23 08:55:00
10:00 AM,19,15,77,,47,ESE,3.5,,,,Scattered Clouds,110,2013-01-23 09:00:00
10:55 AM,19.4,14.0,80,29.50,-9999.0,East,1.2,-,N/A,,Clear,90,2013-01-23 09:55:00
11:55 AM,19.4,10.4,68,29.50,-9999.0,North,2.3,-,N/A,,Clear,350,2013-01-23 10:55:00
1:00 PM,21,14,64,,47,ESE,3.5,,,,Scattered Clouds,110,2013-01-23 12:00:00
1:55 PM,23.0,17.6,80,29.47,6.2,ESE,3.5,-,N/A,,Partly Cloudy,110,2013-01-23 12:55:00
2:55 PM,23.0,19.4,86,29.47,0.5,ESE,8.1,-,N/A,Fog,Light Freezing Fog,120,2013-01-23 13:55:00
3:55 PM,21.2,17.6,86,29.47,6.2,ESE,9.2,-,N/A,,Partly Cloudy,110,2013-01-23 14:55:00
4:00 PM,22,18,78,,9,ESE,9.2,,,Fog,Light Fog,110,2013-01-23 15:00:00
4:55 PM,21.2,17.6,86,29.47,-9999.0,East,5.8,-,N/A,,Clear,100,2013-01-23 15:55:00
5:55 PM,19.4,14.0,80,29.47,-9999.0,ESE,5.8,-,N/A,,Clear,110,2013-01-23 16:55:00
6:55 PM,19.4,15.8,86,29.47,0.3,ESE,6.9,-,N/A,Fog,Light Freezing Fog,120,2013-01-23 17:55:00
7:00 PM,19,16,82,,0,ESE,6.9,,,Fog,Heavy Fog,120,2013-01-23 18:00:00
9:55 PM,19.4,12.2,74,29.47,-9999.0,SE,9.2,-,N/A,,Clear,130,2013-01-23 20:55:00
10:00 PM,19,13,67,,6,SE,9.2,,,,Partly Cloudy,130,2013-01-23 21:00:00